Location: �chenoz-la-M�line
(47.6009°N, 6.1354°E)
Time: 11:56:55
(UTC+00:00)

ERS-2 - Pass Details

Date: 27 January 2021
Orbit: 492 x 497 km, 98.6° (Epoch: 03 March)

Event Time Altitude Azimuth Distance (km) Brightness Sun altitude
Rises 05:18:40 0° 177° (S) 2,571 5.9 -18.4°
Reaches altitude 10° 05:20:47 10° 184° (S) 1,692 4.9 -18.0°
Maximum altitude 05:24:19 47° 259° (W) 665 2.3 -17.4°
Enters shadow 05:25:03 40° 296° (WNW) 743 2.5 -17.3°
